Otagawa — JD3046 — position and weather

sailwx.info

Track history (hours):
 
Tides and Currents Weather Stations Pressure Air Temp Water Temp Dewpoint Dewpoint Depression Visibility Wind Speed Wind Dir Waves Ship Positions

Otagawa

Last reported at 2014-Jul-24 22:31 UTC. Time now 2014-Jul-24 23:01 UTC.
Position N 35°10' E 140°28'.

Length 70 m; draft 4.6 m.

Type: Ship. MMSI: 431001328.

Date/timePositionNaut miles runAvg speedWind from/ knotsBaromVisibWave heightAir tempDewpointWater temp
2014-Jul-24 22:31N 35°10' E 140°28'1111.0
2014-Jul-24 21:33N 35°03' E 140°18'1212.2
2014-Jul-24 20:33N 34°56' E 140°06'1311.1
2014-Jul-24 19:21N 34°51' E 139°51'911.2
2014-Jul-24 18:33N 34°58' E 139°43'1110.9
2014-Jul-24 17:33N 35°09' E 139°45'1010.3
2014-Jul-24 16:33N 35°19' E 139°43'10 9.5
2014-Jul-24 15:33N 35°28' E 139°48'8 8.4
2014-Jul-24 14:33N 35°36' E 139°47'1 1.2
2014-Jul-24 13:33N 35°37' E 139°46'3 3.2
2014-Jul-24 12:33N 35°34' E 139°48'7 7.1
2014-Jul-24 11:33N 35°28' E 139°46'4 4.3
2014-Jul-24 10:33N 35°26' E 139°41'1 0.6
2014-Jul-24 09:33N 35°27' E 139°41'4 4.2
2014-Jul-24 08:33N 35°29' E 139°45'0 0.0
2014-Jul-24 07:33N 35°29' E 139°45'0 0.0
2014-Jul-24 06:33N 35°29' E 139°45'0 0.0
2014-Jul-24 05:33N 35°29' E 139°45'0 0.0
2014-Jul-24 04:33N 35°29' E 139°45'0 0.0
2014-Jul-24 03:33N 35°29' E 139°45'9 8.7
2014-Jul-24 02:33N 35°21' E 139°44'1010.2
2014-Jul-24 01:33N 35°11' E 139°47'1010.3
2014-Jul-24 00:33N 35°02' E 139°39'1111.5
2014-Jul-23 23:33N 34°55' E 139°28'4711.8
2014-Jul-23 19:33N 34°33' E 138°37'  
2014-Jul-21 07:28N 34°43' E 139°04'2010.4
2014-Jul-21 05:31N 34°57' E 139°22'9 9.2
2014-Jul-21 04:33N 35°02' E 139°31'1110.9
2014-Jul-21 03:33N 35°08' E 139°42'1010.3
2014-Jul-21 02:33N 35°18' E 139°44'9 9.3
2014-Jul-21 01:33N 35°27' E 139°47'8 8.3
2014-Jul-21 00:33N 35°35' E 139°47'2 2.1
2014-Jul-20 23:33N 35°37' E 139°46'1 0.6
2014-Jul-20 22:33N 35°36' E 139°46'4 4.3
2014-Jul-20 21:33N 35°34' E 139°50'0 0.0
2014-Jul-20 20:33N 35°34' E 139°50'0 0.0
2014-Jul-20 19:33N 35°34' E 139°50'0 0.0
2014-Jul-20 18:33N 35°34' E 139°50'0 0.0
2014-Jul-20 17:33N 35°34' E 139°50'0 0.0
2014-Jul-20 16:33N 35°34' E 139°50'0 0.0
2014-Jul-20 15:33N 35°34' E 139°50'0 0.1
2014-Jul-20 14:33N 35°34' E 139°50'0 0.0
2014-Jul-20 13:33N 35°34' E 139°50'0 0.0
2014-Jul-20 12:30N 35°34' E 139°50'0 0.0
2014-Jul-20 11:33N 35°34' E 139°50'0 0.0
2014-Jul-20 10:33N 35°34' E 139°50'0 0.0
2014-Jul-20 09:33N 35°34' E 139°50'1 1.5
2014-Jul-20 08:33N 35°33' E 139°51'1010.0
2014-Jul-20 07:33N 35°24' E 139°46'9 9.0
2014-Jul-20 06:33N 35°15' E 139°47'1010.0
2014-Jul-20 05:33N 35°05' E 139°45'12 9.0
2014-Jul-20 04:14N 34°53' E 139°46'8 9.5
2014-Jul-20 03:21N 34°53' E 139°57'810.4
2014-Jul-20 02:33N 34°57' E 140°05'1110.1
2014-Jul-20 01:29N 35°03' E 140°16'1110.5
2014-Jul-20 00:29N 35°10' E 140°26'1110.9
2014-Jul-19 23:31N 35°18' E 140°34'1010.2
2014-Jul-19 22:33N 35°26' E 140°41'1110.6
2014-Jul-19 21:31N 35°34' E 140°50'1211.3
2014-Jul-19 20:27N 35°45' E 140°57'37 0.9
2014-Jul-18 05:33N 35°14' E 140°32'1611.5
2014-Jul-18 04:08N 35°04' E 140°18'610.7
2014-Jul-18 03:33N 35°00' E 140°11'1310.4
2014-Jul-18 02:18N 34°53' E 139°58'7 9.5
2014-Jul-18 01:31N 34°52' E 139°49'9 9.8
2014-Jul-18 00:33N 35°01' E 139°44'1110.7
2014-Jul-17 23:33N 35°11' E 139°46'1010.2
2014-Jul-17 22:34N 35°21' E 139°42'10 9.9
2014-Jul-17 21:33N 35°29' E 139°50'2 2.1
2014-Jul-17 20:34N 35°31' E 139°50'0 0.0
2014-Jul-17 19:33N 35°31' E 139°50'0 0.0
2014-Jul-17 18:32N 35°31' E 139°50'0 0.0
2014-Jul-17 17:32N 35°31' E 139°50'0 0.1
2014-Jul-17 16:32N 35°31' E 139°50'7 6.8
2014-Jul-17 15:33N 35°37' E 139°46'0 0.0
2014-Jul-17 14:33N 35°37' E 139°46'0 0.0
2014-Jul-17 13:33N 35°37' E 139°46'0 0.0
2014-Jul-17 12:33N 35°37' E 139°46'1 0.8
2014-Jul-17 11:34N 35°36' E 139°46'0 0.0
2014-Jul-17 10:33N 35°36' E 139°46'0 0.0
2014-Jul-17 09:34N 35°36' E 139°46'0 0.0
2014-Jul-17 08:33N 35°36' E 139°46'4 3.8
2014-Jul-17 07:34N 35°34' E 139°50'9 8.7
2014-Jul-17 06:33N 35°25' E 139°47'9 9.5
2014-Jul-17 05:33N 35°16' E 139°47'10 9.9
2014-Jul-17 04:34N 35°06' E 139°44'1010.5
2014-Jul-17 03:34N 34°60' E 139°34'52 5.7
2014-Jul-16 18:24N 35°02' E 138°31'28 1.2
2014-Jul-15 18:32N 34°34' E 138°30'29 9.8
2014-Jul-15 15:34N 34°43' E 139°04'10 9.7
2014-Jul-15 14:31N 34°48' E 139°15'1010.2
2014-Jul-15 13:32N 34°50' E 139°27'1110.4
2014-Jul-15 12:28N 34°51' E 139°40'1010.1
2014-Jul-15 11:31N 34°51' E 139°52'9 9.2
2014-Jul-15 10:34N 34°54' E 140°02'9 9.2
2014-Jul-15 09:32N 35°00' E 140°11'2110.5
2014-Jul-15 07:32N 35°15' E 140°30'1110.9
2014-Jul-15 06:33N 35°24' E 140°37'1111.2
2014-Jul-15 05:33N 35°32' E 140°46'1510.8
2014-Jul-15 04:13N 35°45' E 140°54'810.4
2014-Jul-15 03:27N 35°51' E 140°49'7 7.0
2014-Jul-15 02:28N 35°56' E 140°42'2 2.7
2014-Jul-15 01:33N 35°56' E 140°39'0 0.0
2014-Jul-15 00:33N 35°56' E 140°39'0 0.0
2014-Jul-14 23:33N 35°56' E 140°39'  
Track history (hours):
 
Tides and Currents Weather Stations Pressure Air Temp Water Temp Dewpoint Dewpoint Depression Visibility Wind Speed Wind Dir Waves Ship Positions

Otagawa

Last reported at 2014-Jul-24 22:31 UTC. Time now 2014-Jul-24 23:01 UTC.
Position N 35°10' E 140°28'.

Length 70 m; draft 4.6 m.

Type: Ship. MMSI: 431001328.

Date/timePositionNaut miles runAvg speedWind from/ knotsBaromVisibWave heightAir tempDewpointWater temp
2014-Jul-24 22:31N 35°10' E 140°28'1111.0
2014-Jul-24 21:33N 35°03' E 140°18'1212.2
2014-Jul-24 20:33N 34°56' E 140°06'1311.1
2014-Jul-24 19:21N 34°51' E 139°51'911.2
2014-Jul-24 18:33N 34°58' E 139°43'1110.9
2014-Jul-24 17:33N 35°09' E 139°45'1010.3
2014-Jul-24 16:33N 35°19' E 139°43'10 9.5
2014-Jul-24 15:33N 35°28' E 139°48'8 8.4
2014-Jul-24 14:33N 35°36' E 139°47'1 1.2
2014-Jul-24 13:33N 35°37' E 139°46'3 3.2
2014-Jul-24 12:33N 35°34' E 139°48'7 7.1
2014-Jul-24 11:33N 35°28' E 139°46'4 4.3
2014-Jul-24 10:33N 35°26' E 139°41'1 0.6
2014-Jul-24 09:33N 35°27' E 139°41'4 4.2
2014-Jul-24 08:33N 35°29' E 139°45'0 0.0
2014-Jul-24 07:33N 35°29' E 139°45'0 0.0
2014-Jul-24 06:33N 35°29' E 139°45'0 0.0
2014-Jul-24 05:33N 35°29' E 139°45'0 0.0
2014-Jul-24 04:33N 35°29' E 139°45'0 0.0
2014-Jul-24 03:33N 35°29' E 139°45'9 8.7
2014-Jul-24 02:33N 35°21' E 139°44'1010.2
2014-Jul-24 01:33N 35°11' E 139°47'1010.3
2014-Jul-24 00:33N 35°02' E 139°39'1111.5
2014-Jul-23 23:33N 34°55' E 139°28'4711.8
2014-Jul-23 19:33N 34°33' E 138°37'  
2014-Jul-21 07:28N 34°43' E 139°04'2010.4
2014-Jul-21 05:31N 34°57' E 139°22'9 9.2
2014-Jul-21 04:33N 35°02' E 139°31'1110.9
2014-Jul-21 03:33N 35°08' E 139°42'1010.3
2014-Jul-21 02:33N 35°18' E 139°44'9 9.3
2014-Jul-21 01:33N 35°27' E 139°47'8 8.3
2014-Jul-21 00:33N 35°35' E 139°47'2 2.1
2014-Jul-20 23:33N 35°37' E 139°46'1 0.6
2014-Jul-20 22:33N 35°36' E 139°46'4 4.3
2014-Jul-20 21:33N 35°34' E 139°50'0 0.0
2014-Jul-20 20:33N 35°34' E 139°50'0 0.0
2014-Jul-20 19:33N 35°34' E 139°50'0 0.0
2014-Jul-20 18:33N 35°34' E 139°50'0 0.0
2014-Jul-20 17:33N 35°34' E 139°50'0 0.0
2014-Jul-20 16:33N 35°34' E 139°50'0 0.0
2014-Jul-20 15:33N 35°34' E 139°50'0 0.1
2014-Jul-20 14:33N 35°34' E 139°50'0 0.0
2014-Jul-20 13:33N 35°34' E 139°50'0 0.0
2014-Jul-20 12:30N 35°34' E 139°50'0 0.0
2014-Jul-20 11:33N 35°34' E 139°50'0 0.0
2014-Jul-20 10:33N 35°34' E 139°50'0 0.0
2014-Jul-20 09:33N 35°34' E 139°50'1 1.5
2014-Jul-20 08:33N 35°33' E 139°51'1010.0
2014-Jul-20 07:33N 35°24' E 139°46'9 9.0
2014-Jul-20 06:33N 35°15' E 139°47'1010.0
2014-Jul-20 05:33N 35°05' E 139°45'12 9.0
2014-Jul-20 04:14N 34°53' E 139°46'8 9.5
2014-Jul-20 03:21N 34°53' E 139°57'810.4
2014-Jul-20 02:33N 34°57' E 140°05'1110.1
2014-Jul-20 01:29N 35°03' E 140°16'1110.5
2014-Jul-20 00:29N 35°10' E 140°26'1110.9
2014-Jul-19 23:31N 35°18' E 140°34'1010.2
2014-Jul-19 22:33N 35°26' E 140°41'1110.6
2014-Jul-19 21:31N 35°34' E 140°50'1211.3
2014-Jul-19 20:27N 35°45' E 140°57'37 0.9
2014-Jul-18 05:33N 35°14' E 140°32'1611.5
2014-Jul-18 04:08N 35°04' E 140°18'610.7
2014-Jul-18 03:33N 35°00' E 140°11'1310.4
2014-Jul-18 02:18N 34°53' E 139°58'7 9.5
2014-Jul-18 01:31N 34°52' E 139°49'9 9.8
2014-Jul-18 00:33N 35°01' E 139°44'1110.7
2014-Jul-17 23:33N 35°11' E 139°46'1010.2
2014-Jul-17 22:34N 35°21' E 139°42'10 9.9
2014-Jul-17 21:33N 35°29' E 139°50'2 2.1
2014-Jul-17 20:34N 35°31' E 139°50'0 0.0
2014-Jul-17 19:33N 35°31' E 139°50'0 0.0
2014-Jul-17 18:32N 35°31' E 139°50'0 0.0
2014-Jul-17 17:32N 35°31' E 139°50'0 0.1
2014-Jul-17 16:32N 35°31' E 139°50'7 6.8
2014-Jul-17 15:33N 35°37' E 139°46'0 0.0
2014-Jul-17 14:33N 35°37' E 139°46'0 0.0
2014-Jul-17 13:33N 35°37' E 139°46'0 0.0
2014-Jul-17 12:33N 35°37' E 139°46'1 0.8
2014-Jul-17 11:34N 35°36' E 139°46'0 0.0
2014-Jul-17 10:33N 35°36' E 139°46'0 0.0
2014-Jul-17 09:34N 35°36' E 139°46'0 0.0
2014-Jul-17 08:33N 35°36' E 139°46'4 3.8
2014-Jul-17 07:34N 35°34' E 139°50'9 8.7
2014-Jul-17 06:33N 35°25' E 139°47'9 9.5
2014-Jul-17 05:33N 35°16' E 139°47'10 9.9
2014-Jul-17 04:34N 35°06' E 139°44'1010.5
2014-Jul-17 03:34N 34°60' E 139°34'52 5.7
2014-Jul-16 18:24N 35°02' E 138°31'28 1.2
2014-Jul-15 18:32N 34°34' E 138°30'29 9.8
2014-Jul-15 15:34N 34°43' E 139°04'10 9.7
2014-Jul-15 14:31N 34°48' E 139°15'1010.2
2014-Jul-15 13:32N 34°50' E 139°27'1110.4
2014-Jul-15 12:28N 34°51' E 139°40'1010.1
2014-Jul-15 11:31N 34°51' E 139°52'9 9.2
2014-Jul-15 10:34N 34°54' E 140°02'9 9.2
2014-Jul-15 09:32N 35°00' E 140°11'2110.5
2014-Jul-15 07:32N 35°15' E 140°30'1110.9
2014-Jul-15 06:33N 35°24' E 140°37'1111.2
2014-Jul-15 05:33N 35°32' E 140°46'1510.8
2014-Jul-15 04:13N 35°45' E 140°54'810.4
2014-Jul-15 03:27N 35°51' E 140°49'7 7.0
2014-Jul-15 02:28N 35°56' E 140°42'2 2.7
2014-Jul-15 01:33N 35°56' E 140°39'0 0.0
2014-Jul-15 00:33N 35°56' E 140°39'0 0.0
2014-Jul-14 23:33N 35°56' E 140°39'  

Dump ship's entire track history